2018-097C (43753 NORAD) Tracking and Keplerian Element Data

This shows tracking and keplerian element data for the satellite.

Feedback or suggestion? Click here.




ElementValue
Catalog43753
Name2018-097C
Epoch Orbit123
Epoch Day343.98873427
Epoch Year2018
RAAN126.8776
Inclination82.511
Eccentricity0.001473
Argument of Perigee298.2962
Mean Anonmoly61.6625
Mean Motion12.42226752
Decay Rate1.1E-07
L11 43753U 18097C 18343.98873427 .00000011 00000-0 12558-4 0 9991
L22 43753 82.5110 126.8776 0014730 298.2962 61.6625 12.42226752 1236

Live tracking and technical data element details for 2018-097C (NORAD 43753). 2018-097C can be tracked NOW for your location showing map with azimuth and elevation plus other details from your city location.

Track the satellite on the map from your city or location and see movement details for azimuth, elevation, latitude, longitude, range, height, and movement on the map or in text.







IsCatalogInMostPopularTable: catalog: 43753, numindb: 2
Update: records affected: 1



GetName: 43753 2018-097C

Hit Count: updated at: Tue, 11 Dec 2018 03:14:17 GMT